Regional Weather Roundup
Issued by NWS Sioux Falls, SD

Home | Current Version | Previous Version | Text Only | Print | Product List | Glossary On
Versions: 1 2 3 4 5 6 7 8 9 10 11 12 13 14 15 16 17 18 19 20 21 22 23 24 25 26 27 28 29 30 31 32 33 34 35 36 37 38 39 40 41 42 43 44 45 46 47 48 49 50
000
ASUS43 KFSD 260910
RWRFSD

WEATHER ROUNDUP FOR SE SOUTH DAKOTA/SW MINNESOTA/NW IOWA
NATIONAL WEATHER SERVICE SIOUX FALLS SD
300 AM CST SUN FEB 26 2017

NOTE: "FAIR" INDICATES FEW OR NO CLOUDS BELOW 12,000 FEET WITH NO
SIGNIFICANT WEATHER AND OR OBSTRUCTIONS TO VISIBILITY.


SDZ038>040-050-052>070-261000-
SOUTHEAST SOUTH DAKOTA

CITY           SKY/WX    TMP DP  RH WIND       PRES   REMARKS
BROOKINGS      CLEAR     19  17  92 S10       29.71S WCI   7
CHAMBERLAIN    CLEAR     24  19  81 SW7       29.75R WCI  16
HURON          MOCLDY    24  22  91 SW7       29.73R WCI  16
MADISON        CLOUDY    19  19 100 SW12      29.72S WCI   7
MITCHELL       PTCLDY    25  20  81 SW7       29.75F WCI  17
SIOUX FALLS    CLEAR     20  16  84 SW5       29.75F WCI  13
WINNER         FAIR      21  12  68 W10       29.75R WCI  10
YANKTON        CLEAR     23  18  80 SW3       29.78F
$$

MNZ071-072-080-081-089-090-097-098-261000-
SOUTHWEST MINNESOTA

CITY           SKY/WX    TMP DP  RH WIND       PRES   REMARKS
FAIRMONT       CLEAR     17  14  88 S10       29.77F WCI   5
JACKSON        CLOUDY    21  16  79 SW9       29.75F WCI  11
LUVERNE        CLEAR     18  14  86 SW7       29.77S WCI   8
MARSHALL       CLEAR     23  19  85 SW8       29.73S WCI  14
MONTEVIDEO     CLEAR     25  21  86 W6        29.73S WCI  18
PIPESTONE      CLEAR     19  14  79 SW7       29.72S WCI  10
REDWOOD FALLS  CLOUDY    25  19  78 SW9       29.73F WCI  15
TRACY          PTCLDY    24  21  86 SW13      29.72S WCI  13
WINDOM         PTCLDY    21  18  86 SW9       29.74S WCI  11
WORTHINGTON    CLEAR     20  17  88 SW13      29.74F WCI   7
$$

IAZ001>003-012>014-020>022-031-032-NEZ013-014-SDZ071-261000-
NORTHWEST IOWA

CITY           SKY/WX    TMP DP  RH WIND       PRES   REMARKS
CHEROKEE       CLOUDY    21  19  90 S3        29.80F
DENISON        CLEAR     23  19  86 SW6       29.82S WCI  16
ESTHERVILLE    CLEAR     12  10  92 S8        29.77F WCI   0
LE MARS        CLOUDY    19  18  93 S6        29.81S WCI  11
SHELDON        CLEAR     21  21 100 SW10      29.76F WCI  10
SIOUX CITY     CLEAR     16  13  88 S3        29.83R
SPENCER        CLEAR     20  15  81 SW13      29.78S WCI   7
STORM LAKE     CLOUDY    25  19  80 SW12      29.79F WCI  14
$$

ABBREVIATIONS USED IN REMARKS
   TC - TEMPERATURE IN CELSIUS
  WCI - WIND CHILL INDEX
   HX - HEAT INDEX
  VSB - VISIBILITY





USA.gov is the U.S. government's official web portal to all federal, state and local government web resources and services.